AFR25TF LFPG-ELLX

Flight info

Callsign AFR25TF
Flight time 0h 35m
Altitude 19000
Route DIKOL J10 SUIPE M163 MMD
Aircraft A320/M-SDE3FGHIRWY/LB1

Departure

Time 2026-05-05 13:28
Airport Charles de Gaulle International Airport (LFPG)

Arrival

Time 2026-05-05 14:04
Airport Luxembourg-Findel International Airport (ELLX)
Time Latitude Longitude Altitude Speed Heading
2026-05-05 13:09 49.00193 2.56739 355 ft 0 kts 355°
2026-05-05 13:18 49.00191 2.56739 354 ft 2 kts 355°
2026-05-05 13:19 49.00175 2.56741 363 ft 2 kts 354°
2026-05-05 13:19 49.00159 2.56744 361 ft 2 kts 351°
2026-05-05 13:19 49.00142 2.56749 361 ft 2 kts 342°
2026-05-05 13:19 49.00127 2.56758 363 ft 2 kts 309°
2026-05-05 13:20 49.00122 2.56776 358 ft 1 kts 269°
2026-05-05 13:20 49.00122 2.56778 357 ft 0 kts 269°
2026-05-05 13:22 49.00121 2.56768 360 ft 6 kts 265°
2026-05-05 13:23 49.00115 2.56651 356 ft 19 kts 266°
2026-05-05 13:23 49.00103 2.56385 363 ft 30 kts 263°
2026-05-05 13:23 49.00084 2.56063 354 ft 31 kts 266°
2026-05-05 13:23 49.00072 2.55729 354 ft 32 kts 269°
2026-05-05 13:24 48.99959 2.55540 356 ft 21 kts 159°
2026-05-05 13:24 48.99851 2.55666 356 ft 19 kts 120°
2026-05-05 13:24 48.99791 2.55799 354 ft 12 kts 161°
2026-05-05 13:24 48.99714 2.55811 354 ft 9 kts 175°
2026-05-05 13:25 48.99702 2.55812 354 ft 0 kts 175°
2026-05-05 13:25 48.99681 2.55815 354 ft 12 kts 175°
2026-05-05 13:26 48.99602 2.55900 353 ft 15 kts 87°
2026-05-05 13:26 48.99605 2.55929 353 ft 0 kts 84°
2026-05-05 13:27 48.99605 2.55934 354 ft 4 kts 84°
2026-05-05 13:28 48.99620 2.56190 357 ft 58 kts 85°
2026-05-05 13:28 48.99672 2.57164 355 ft 124 kts 85°
2026-05-05 13:28 48.99742 2.58706 521 ft 157 kts 82°
2026-05-05 13:28 48.99811 2.60429 1033 ft 170 kts 82°
2026-05-05 13:29 48.99905 2.62299 1624 ft 183 kts 81°
2026-05-05 13:29 49.00028 2.64340 2026 ft 207 kts 83°
2026-05-05 13:29 49.00155 2.66636 2562 ft 221 kts 84°
2026-05-05 13:29 49.00273 2.68906 3662 ft 210 kts 84°
2026-05-05 13:30 49.00392 2.71068 4715 ft 200 kts 85°
2026-05-05 13:30 49.00514 2.73233 5305 ft 217 kts 84°
2026-05-05 13:30 49.00646 2.75675 6024 ft 247 kts 83°
2026-05-05 13:30 49.00820 2.78413 6807 ft 272 kts 84°
2026-05-05 13:31 49.00983 2.81334 7837 ft 278 kts 84°
2026-05-05 13:31 49.01133 2.84286 8907 ft 282 kts 85°
2026-05-05 13:31 49.01274 2.87279 10015 ft 284 kts 85°
2026-05-05 13:31 49.01424 2.90345 10642 ft 303 kts 85°
2026-05-05 13:32 49.01597 2.93676 11020 ft 326 kts 84°
2026-05-05 13:32 49.01875 2.97191 11426 ft 341 kts 81°
2026-05-05 13:32 49.02279 3.00776 12080 ft 346 kts 80°
2026-05-05 13:32 49.02728 3.04392 12848 ft 349 kts 79°
2026-05-05 13:33 49.03216 3.08022 13612 ft 351 kts 79°
2026-05-05 13:33 49.03737 3.11682 14250 ft 355 kts 79°
2026-05-05 13:33 49.04293 3.15371 14881 ft 359 kts 78°
2026-05-05 13:33 49.04812 3.19110 15536 ft 361 kts 81°
2026-05-05 13:34 49.05222 3.22876 16322 ft 359 kts 82°
2026-05-05 13:34 49.05590 3.26625 17131 ft 357 kts 83°
2026-05-05 13:34 49.05932 3.30373 17870 ft 358 kts 83°
2026-05-05 13:34 49.06304 3.34199 18106 ft 373 kts 83°
2026-05-05 13:35 49.06710 3.38141 18542 ft 377 kts 82°
2026-05-05 13:35 49.07137 3.42089 18759 ft 377 kts 82°
2026-05-05 13:35 49.07584 3.46076 18820 ft 387 kts 82°
2026-05-05 13:35 49.08045 3.50150 18825 ft 392 kts 82°
2026-05-05 13:36 49.08507 3.54250 18818 ft 394 kts 82°
2026-05-05 13:36 49.08966 3.58391 18827 ft 398 kts 83°
2026-05-05 13:36 49.09413 3.62567 18827 ft 399 kts 83°
2026-05-05 13:36 49.09850 3.66738 18826 ft 399 kts 83°
2026-05-05 13:37 49.10281 3.70916 18829 ft 399 kts 83°
2026-05-05 13:37 49.10711 3.75102 18829 ft 399 kts 83°
2026-05-05 13:37 49.11137 3.79275 18830 ft 399 kts 83°
2026-05-05 13:37 49.11569 3.83456 18832 ft 399 kts 83°
2026-05-05 13:38 49.11995 3.87576 18830 ft 399 kts 83°
2026-05-05 13:38 49.12423 3.91762 18831 ft 398 kts 83°
2026-05-05 13:38 49.12848 3.95937 18830 ft 398 kts 83°
2026-05-05 13:38 49.13303 4.00107 18831 ft 399 kts 79°
2026-05-05 13:39 49.14149 4.04151 18831 ft 402 kts 69°
2026-05-05 13:39 49.15477 4.07914 18830 ft 405 kts 58°
2026-05-05 13:39 49.17205 4.11325 18829 ft 406 kts 52°
2026-05-05 13:39 49.18998 4.14662 18831 ft 407 kts 52°
2026-05-05 13:40 49.20795 4.18007 18830 ft 407 kts 53°
2026-05-05 13:40 49.22590 4.21354 18816 ft 407 kts 53°
2026-05-05 13:40 49.24270 4.24812 18824 ft 404 kts 60°
2026-05-05 13:40 49.25533 4.28621 18830 ft 400 kts 71°
2026-05-05 13:41 49.26349 4.32671 18831 ft 398 kts 78°
2026-05-05 13:41 49.27017 4.36780 18836 ft 398 kts 78°
2026-05-05 13:41 49.27687 4.40890 18837 ft 397 kts 78°
2026-05-05 13:41 49.28357 4.44998 18827 ft 398 kts 78°
2026-05-05 13:42 49.29029 4.49107 18818 ft 398 kts 78°
2026-05-05 13:42 49.29701 4.53229 18813 ft 399 kts 78°
2026-05-05 13:42 49.30371 4.57354 18812 ft 399 kts 78°
2026-05-05 13:42 49.31038 4.61488 18813 ft 400 kts 78°
2026-05-05 13:43 49.31705 4.65624 18809 ft 399 kts 78°
2026-05-05 13:43 49.32371 4.69752 18809 ft 399 kts 78°
2026-05-05 13:43 49.33036 4.73885 18809 ft 399 kts 78°
2026-05-05 13:43 49.33699 4.78021 18810 ft 400 kts 78°
2026-05-05 13:44 49.34360 4.82165 18832 ft 401 kts 79°
2026-05-05 13:44 49.35021 4.86325 18836 ft 402 kts 79°
2026-05-05 13:44 49.35682 4.90491 18822 ft 402 kts 79°
2026-05-05 13:44 49.36339 4.94642 18804 ft 400 kts 79°
2026-05-05 13:45 49.36995 4.98791 18799 ft 400 kts 79°
2026-05-05 13:45 49.37646 5.02944 18804 ft 401 kts 79°
2026-05-05 13:45 49.38295 5.07107 18804 ft 402 kts 79°
2026-05-05 13:45 49.38946 5.11278 18804 ft 402 kts 79°
2026-05-05 13:46 49.39769 5.15384 18807 ft 404 kts 74°
2026-05-05 13:46 49.40665 5.19471 18813 ft 404 kts 74°
2026-05-05 13:46 49.41557 5.23560 18808 ft 404 kts 74°
2026-05-05 13:46 49.42440 5.27647 18812 ft 400 kts 74°
2026-05-05 13:47 49.43307 5.31652 18806 ft 391 kts 75°
2026-05-05 13:47 49.44163 5.35610 18048 ft 395 kts 74°
2026-05-05 13:47 49.45033 5.39643 17221 ft 399 kts 74°
2026-05-05 13:47 49.45901 5.43667 16809 ft 391 kts 74°
2026-05-05 13:48 49.46744 5.47559 16681 ft 378 kts 74°
2026-05-05 13:48 49.47560 5.51337 16548 ft 366 kts 74°
2026-05-05 13:48 49.48337 5.54953 16421 ft 356 kts 74°
2026-05-05 13:48 49.49050 5.58599 15696 ft 360 kts 81°
2026-05-05 13:49 49.49506 5.62399 15107 ft 362 kts 83°
2026-05-05 13:49 49.49927 5.66211 14643 ft 361 kts 83°
2026-05-05 13:49 49.50342 5.70008 14211 ft 359 kts 83°
2026-05-05 13:49 49.50754 5.73774 13778 ft 356 kts 83°
2026-05-05 13:50 49.51163 5.77529 13290 ft 354 kts 83°
2026-05-05 13:50 49.51567 5.81244 12774 ft 351 kts 83°
2026-05-05 13:50 49.51966 5.84943 12260 ft 349 kts 83°
2026-05-05 13:50 49.52360 5.88618 11757 ft 347 kts 83°
2026-05-05 13:51 49.52750 5.92276 11254 ft 345 kts 83°
2026-05-05 13:51 49.53135 5.95905 10764 ft 343 kts 83°
2026-05-05 13:51 49.53516 5.99517 10293 ft 341 kts 83°
2026-05-05 13:51 49.53890 6.03066 10132 ft 329 kts 83°
2026-05-05 13:52 49.54252 6.06477 10012 ft 316 kts 83°
2026-05-05 13:52 49.54602 6.09713 9755 ft 298 kts 83°
2026-05-05 13:52 49.54940 6.12826 9200 ft 292 kts 83°
2026-05-05 13:52 49.55272 6.15885 8537 ft 288 kts 83°
2026-05-05 13:53 49.55599 6.18920 7868 ft 285 kts 83°
2026-05-05 13:53 49.55930 6.21931 7336 ft 286 kts 80°
2026-05-05 13:53 49.56654 6.24798 6886 ft 289 kts 65°
2026-05-05 13:53 49.57591 6.27522 6454 ft 289 kts 63°
2026-05-05 13:54 49.58549 6.30248 5990 ft 289 kts 63°
2026-05-05 13:54 49.59501 6.32969 5525 ft 289 kts 63°
2026-05-05 13:54 49.60451 6.35696 5067 ft 288 kts 63°
2026-05-05 13:54 49.61397 6.38416 4612 ft 287 kts 63°
2026-05-05 13:55 49.62331 6.41114 4252 ft 282 kts 63°
2026-05-05 13:55 49.63232 6.43733 3993 ft 272 kts 63°
2026-05-05 13:55 49.64099 6.46281 3737 ft 264 kts 63°
2026-05-05 13:55 49.64931 6.48760 3486 ft 257 kts 63°
2026-05-05 13:56 49.65749 6.51209 3237 ft 257 kts 64°
2026-05-05 13:56 49.66564 6.53662 3039 ft 255 kts 63°
2026-05-05 13:56 49.67357 6.56083 2984 ft 251 kts 63°
2026-05-05 13:56 49.68146 6.58432 2970 ft 249 kts 59°
2026-05-05 13:57 49.69348 6.60310 2975 ft 248 kts 27°
2026-05-05 13:57 49.70985 6.60980 2980 ft 244 kts 356°
2026-05-05 13:57 49.72605 6.60273 2979 ft 239 kts 327°
2026-05-05 13:57 49.73793 6.58673 2975 ft 223 kts 303°
2026-05-05 13:58 49.74450 6.56593 2983 ft 212 kts 282°
2026-05-05 13:58 49.74554 6.54389 2978 ft 201 kts 261°
2026-05-05 13:58 49.74336 6.52996 2966 ft 195 kts 247°
2026-05-05 13:58 49.73526 6.50662 3006 ft 178 kts 240°
2026-05-05 13:59 49.72347 6.47436 2978 ft 170 kts 240°
2026-05-05 13:59 49.71763 6.45847 2978 ft 170 kts 240°
2026-05-05 14:00 49.70785 6.43187 2970 ft 170 kts 240°
2026-05-05 14:00 49.70208 6.41616 2973 ft 170 kts 239°
2026-05-05 14:00 49.69622 6.40025 2980 ft 170 kts 240°
2026-05-05 14:00 49.69057 6.38493 2972 ft 159 kts 240°
2026-05-05 14:01 49.68523 6.37045 2966 ft 152 kts 240°
2026-05-05 14:01 49.68004 6.35639 2930 ft 149 kts 240°
2026-05-05 14:01 49.67511 6.34304 2804 ft 139 kts 239°
2026-05-05 14:01 49.67040 6.33028 2641 ft 136 kts 239°
2026-05-05 14:02 49.66569 6.31764 2452 ft 136 kts 238°
2026-05-05 14:02 49.66089 6.30519 2349 ft 134 kts 238°
2026-05-05 14:02 49.65621 6.29259 2144 ft 136 kts 239°
2026-05-05 14:02 49.65162 6.27993 1869 ft 135 kts 241°
2026-05-05 14:03 49.64725 6.26711 1765 ft 136 kts 240°
2026-05-05 14:03 49.64234 6.25473 1573 ft 136 kts 237°
2026-05-05 14:03 49.63783 6.24198 1408 ft 135 kts 239°
2026-05-05 14:03 49.63309 6.22956 1241 ft 133 kts 240°
2026-05-05 14:04 49.62906 6.21863 1217 ft 100 kts 239°
2026-05-05 14:04 49.62633 6.21130 1217 ft 61 kts 239°
2026-05-05 14:04 49.62461 6.20672 1213 ft 30 kts 241°
2026-05-05 14:04 49.62502 6.20510 1205 ft 20 kts 318°
2026-05-05 14:05 49.62593 6.20478 1198 ft 12 kts 17°
2026-05-05 14:05 49.62653 6.20559 1197 ft 11 kts 46°
2026-05-05 14:05 49.62688 6.20608 1197 ft 0 kts 39°
2026-05-05 14:06 49.62737 6.20665 1196 ft 16 kts 36°
2026-05-05 14:06 49.62813 6.20792 1196 ft 19 kts 61°
2026-05-05 14:06 49.62881 6.21010 1197 ft 24 kts 65°
2026-05-05 14:06 49.62955 6.21247 1197 ft 25 kts 65°
2026-05-05 14:07 49.63031 6.21501 1197 ft 27 kts 62°
2026-05-05 14:07 49.63114 6.21766 1198 ft 28 kts 65°
2026-05-05 14:07 49.63199 6.22039 1198 ft 24 kts 63°
2026-05-05 14:07 49.63268 6.22116 1197 ft 12 kts 333°
2026-05-05 14:08 49.63332 6.22024 1196 ft 13 kts 315°
2026-05-05 14:08 49.63366 6.21900 1196 ft 11 kts 298°
2026-05-05 14:08 49.63408 6.21850 1195 ft 0 kts 330°